TimeCST,TemperatureF,Dew PointF,Humidity,Sea Level PressureIn,VisibilityMPH,Wind Direction,Wind SpeedMPH,Gust SpeedMPH,PrecipitationIn,Events,Conditions,WindDirDegrees,DateUTC
12:15 AM,41.0,21.2,45,30.14,10.0,NW,4.6,-,N/A,,Scattered Clouds,310,2013-02-15 06:15:00
12:35 AM,39.2,21.2,49,30.14,10.0,NW,3.5,-,N/A,,Clear,310,2013-02-15 06:35:00
12:55 AM,39.2,23.0,52,30.14,10.0,WNW,4.6,-,N/A,,Partly Cloudy,300,2013-02-15 06:55:00
1:15 AM,37.4,21.2,52,30.14,10.0,WNW,3.5,-,N/A,,Scattered Clouds,290,2013-02-15 07:15:00
1:35 AM,35.6,21.2,56,30.14,10.0,WNW,3.5,-,N/A,,Clear,290,2013-02-15 07:35:00
1:55 AM,35.6,21.2,56,30.15,10.0,NW,4.6,-,N/A,,Mostly Cloudy,310,2013-02-15 07:55:00
2:15 AM,37.4,21.2,52,30.15,10.0,NW,4.6,-,N/A,,Overcast,320,2013-02-15 08:15:00
2:35 AM,37.4,21.2,52,30.16,10.0,NNW,3.5,-,N/A,,Mostly Cloudy,330,2013-02-15 08:35:00
2:55 AM,37.4,21.2,52,30.16,10.0,NNW,4.6,-,N/A,,Mostly Cloudy,340,2013-02-15 08:55:00
3:15 AM,35.6,21.2,56,30.17,10.0,NNW,6.9,-,N/A,,Overcast,330,2013-02-15 09:15:00
3:35 AM,35.6,21.2,56,30.17,10.0,NNW,4.6,-,N/A,,Mostly Cloudy,330,2013-02-15 09:35:00
3:55 AM,35.6,23.0,60,30.18,10.0,NNW,6.9,-,N/A,,Overcast,340,2013-02-15 09:55:00
4:15 AM,35.6,23.0,60,30.19,10.0,NNW,6.9,-,N/A,,Overcast,340,2013-02-15 10:15:00
4:35 AM,35.6,23.0,60,30.20,10.0,NNW,5.8,-,N/A,,Overcast,340,2013-02-15 10:35:00
4:55 AM,35.6,24.8,65,30.21,10.0,North,5.8,-,N/A,,Overcast,350,2013-02-15 10:55:00
5:15 AM,33.8,23.0,65,30.22,10.0,NNW,11.5,16.1,N/A,,Overcast,340,2013-02-15 11:15:00
5:35 AM,33.8,19.4,56,30.23,10.0,North,10.4,17.3,N/A,,Overcast,350,2013-02-15 11:35:00
5:55 AM,32.0,19.4,60,30.24,10.0,North,10.4,17.3,N/A,,Mostly Cloudy,350,2013-02-15 11:55:00
6:15 AM,32.0,19.4,60,30.25,10.0,North,9.2,17.3,N/A,,Overcast,350,2013-02-15 12:15:00
6:35 AM,30.2,19.4,64,30.26,10.0,North,9.2,-,N/A,,Mostly Cloudy,350,2013-02-15 12:35:00
6:55 AM,30.2,19.4,64,30.27,10.0,North,5.8,-,N/A,,Overcast,350,2013-02-15 12:55:00
7:15 AM,30.2,19.4,64,30.27,10.0,North,6.9,-,N/A,,Overcast,350,2013-02-15 13:15:00
7:35 AM,30.2,21.2,69,30.29,10.0,North,5.8,-,N/A,,Overcast,360,2013-02-15 13:35:00
7:55 AM,30.2,19.4,64,30.30,10.0,North,10.4,17.3,N/A,,Overcast,360,2013-02-15 13:55:00
8:15 AM,30.2,19.4,64,30.31,10.0,NNW,9.2,-,N/A,,Overcast,340,2013-02-15 14:15:00
8:35 AM,30.2,17.6,60,30.32,10.0,NNW,9.2,21.9,N/A,,Overcast,330,2013-02-15 14:35:00
8:55 AM,30.2,17.6,60,30.33,10.0,NNW,6.9,19.6,N/A,,Scattered Clouds,340,2013-02-15 14:55:00
9:15 AM,30.2,15.8,55,30.33,10.0,NNW,10.4,16.1,N/A,,Clear,340,2013-02-15 15:15:00
9:35 AM,30.2,15.8,55,30.33,10.0,NNW,10.4,20.7,N/A,,Clear,340,2013-02-15 15:35:00
9:55 AM,30.2,12.2,47,30.33,10.0,NNW,8.1,18.4,N/A,,Clear,340,2013-02-15 15:55:00
10:15 AM,32.0,10.4,41,30.33,10.0,NNW,10.4,18.4,N/A,,Clear,330,2013-02-15 16:15:00
10:35 AM,33.8,12.2,41,30.33,10.0,NNW,9.2,16.1,N/A,,Clear,340,2013-02-15 16:35:00
10:55 AM,33.8,14.0,44,30.33,10.0,NNW,8.1,-,N/A,,Clear,330,2013-02-15 16:55:00
11:15 AM,33.8,10.4,38,30.33,10.0,North,6.9,-,N/A,,Clear,350,2013-02-15 17:15:00
11:55 AM,35.6,10.4,35,30.32,10.0,North,6.9,-,N/A,,Clear,360,2013-02-15 17:55:00
12:15 PM,35.6,10.4,35,30.32,10.0,NW,6.9,-,N/A,,Clear,310,2013-02-15 18:15:00
12:35 PM,37.4,8.6,30,30.31,10.0,WNW,9.2,18.4,N/A,,Clear,300,2013-02-15 18:35:00
12:55 PM,37.4,8.6,30,30.30,10.0,NNW,12.7,18.4,N/A,,Clear,330,2013-02-15 18:55:00
1:15 PM,37.4,8.6,30,30.29,10.0,North,11.5,17.3,N/A,,Clear,350,2013-02-15 19:15:00
1:35 PM,37.4,8.6,30,30.28,10.0,Calm,Calm,-,N/A,,Clear,0,2013-02-15 19:35:00
1:55 PM,37.4,8.6,30,30.28,10.0,West,6.9,-,N/A,,Clear,280,2013-02-15 19:55:00
2:15 PM,37.4,8.6,30,30.27,10.0,WNW,10.4,-,N/A,,Clear,290,2013-02-15 20:15:00
2:35 PM,39.2,8.6,28,30.27,10.0,NW,9.2,-,N/A,,Clear,310,2013-02-15 20:35:00
2:55 PM,37.4,6.8,28,30.27,10.0,North,6.9,-,N/A,,Clear,350,2013-02-15 20:55:00
3:15 PM,39.2,6.8,26,30.27,10.0,NW,8.1,-,N/A,,Clear,320,2013-02-15 21:15:00
3:35 PM,39.2,6.8,26,30.27,10.0,NNW,6.9,-,N/A,,Clear,340,2013-02-15 21:35:00
3:55 PM,37.4,6.8,28,30.27,10.0,NNW,9.2,16.1,N/A,,Clear,340,2013-02-15 21:55:00
4:15 PM,37.4,8.6,30,30.27,10.0,NNW,9.2,-,N/A,,Clear,330,2013-02-15 22:15:00
4:35 PM,37.4,6.8,28,30.28,10.0,NW,8.1,-,N/A,,Clear,320,2013-02-15 22:35:00
4:55 PM,37.4,5.0,26,30.28,10.0,NNW,6.9,-,N/A,,Clear,330,2013-02-15 22:55:00
5:15 PM,35.6,6.8,30,30.28,10.0,NNW,8.1,-,N/A,,Clear,340,2013-02-15 23:15:00
5:35 PM,35.6,6.8,30,30.28,10.0,WNW,6.9,-,N/A,,Clear,290,2013-02-15 23:35:00
5:55 PM,35.6,6.8,30,30.28,10.0,WNW,5.8,-,N/A,,Clear,300,2013-02-15 23:55:00
6:15 PM,33.8,6.8,32,30.28,10.0,NW,3.5,-,N/A,,Clear,320,2013-02-16 00:15:00
6:35 PM,33.8,6.8,32,30.28,10.0,NNW,3.5,-,N/A,,Clear,330,2013-02-16 00:35:00
6:55 PM,33.8,8.6,35,30.28,10.0,NW,4.6,-,N/A,,Mostly Cloudy,320,2013-02-16 00:55:00
7:15 PM,33.8,8.6,35,30.29,10.0,NW,3.5,-,N/A,,Scattered Clouds,310,2013-02-16 01:15:00
7:35 PM,32.0,8.6,38,30.29,10.0,NNW,6.9,-,N/A,,Clear,340,2013-02-16 01:35:00
7:55 PM,30.2,8.6,40,30.30,10.0,NNW,9.2,-,N/A,,Clear,340,2013-02-16 01:55:00
8:15 PM,30.2,12.2,47,30.30,10.0,North,5.8,-,N/A,,Clear,350,2013-02-16 02:15:00
8:35 PM,30.2,10.4,44,30.30,10.0,North,4.6,-,N/A,,Clear,350,2013-02-16 02:35:00
8:55 PM,28.4,10.4,47,30.30,10.0,NNW,3.5,-,N/A,,Clear,330,2013-02-16 02:55:00
9:15 PM,28.4,10.4,47,30.30,10.0,NNW,3.5,-,N/A,,Clear,340,2013-02-16 03:15:00
9:35 PM,28.4,10.4,47,30.30,10.0,NNW,4.6,-,N/A,,Clear,340,2013-02-16 03:35:00
9:55 PM,26.6,10.4,51,30.30,10.0,North,4.6,-,N/A,,Clear,350,2013-02-16 03:55:00
10:15 PM,26.6,10.4,51,30.30,10.0,North,5.8,-,N/A,,Clear,350,2013-02-16 04:15:00
10:35 PM,26.6,12.2,55,30.29,10.0,North,4.6,-,N/A,,Clear,10,2013-02-16 04:35:00
10:55 PM,26.6,12.2,55,30.29,10.0,North,3.5,-,N/A,,Clear,360,2013-02-16 04:55:00
11:15 PM,26.6,12.2,55,30.28,10.0,Calm,Calm,-,N/A,,Clear,0,2013-02-16 05:15:00
11:35 PM,26.6,12.2,55,30.28,10.0,Calm,Calm,-,N/A,,Clear,0,2013-02-16 05:35:00
11:55 PM,24.8,10.4,54,30.28,10.0,Calm,Calm,-,N/A,,Clear,0,2013-02-16 05:55:00